TimeHADT,TemperatureF,Dew PointF,Humidity,Sea Level PressureIn,VisibilityMPH,Wind Direction,Wind SpeedMPH,Gust SpeedMPH,PrecipitationIn,Events,Conditions,WindDirDegrees,DateUTC
12:01 AM,48.9,48.0,97,30.29,8.0,North,-9999.0,-,N/A,,Overcast,0,2012-10-09 09:01:00
1:01 AM,48.9,48.0,97,30.28,9.0,North,-9999.0,-,N/A,,Overcast,0,2012-10-09 10:01:00
1:42 AM,48.2,46.4,93,30.00,5.0,North,-9999.0,-,N/A,,Overcast,0,2012-10-09 10:42:00
1:58 AM,48.2,46.4,93,30.00,2.0,North,-9999.0,-,N/A,,Overcast,0,2012-10-09 10:58:00
2:01 AM,48.2,46.4,93,29.99,1.8,North,-9999.0,-,N/A,,Overcast,0,2012-10-09 11:01:00
2:52 AM,48.2,46.4,93,29.99,2.5,North,-9999.0,-,N/A,,Overcast,0,2012-10-09 11:52:00
3:01 AM,48.0,46.9,96,30.28,4.0,North,-9999.0,-,N/A,,Overcast,0,2012-10-09 12:01:00
4:01 AM,46.9,46.9,100,30.28,5.0,North,-9999.0,-,N/A,,Overcast,0,2012-10-09 13:01:00
5:01 AM,46.9,46.0,97,30.27,4.0,North,-9999.0,-,N/A,,Overcast,0,2012-10-09 14:01:00
6:01 AM,46.4,46.4,100,29.98,4.0,North,-9999.0,-,0.00,Rain,Light Rain,0,2012-10-09 15:01:00
7:01 AM,46.9,46.0,97,30.26,6.0,North,-9999.0,-,0.01,,Overcast,0,2012-10-09 16:01:00
8:01 AM,46.9,46.0,97,30.24,10.0,North,-9999.0,-,0.00,Rain,Light Rain,0,2012-10-09 17:01:00
9:01 AM,46.9,46.0,97,30.24,10.0,North,-9999.0,-,0.00,,Overcast,0,2012-10-09 18:01:00
9:38 AM,48.2,46.4,93,29.95,10.0,North,-9999.0,-,N/A,,Overcast,0,2012-10-09 18:38:00
9:45 AM,48.2,44.6,87,29.95,10.0,North,-9999.0,-,N/A,,Overcast,0,2012-10-09 18:45:00
10:01 AM,48.0,46.0,93,30.23,10.0,North,-9999.0,-,N/A,,Overcast,0,2012-10-09 19:01:00
10:19 AM,48.2,46.4,93,29.94,6.0,North,-9999.0,-,N/A,,Mist,0,2012-10-09 19:19:00
10:50 AM,48.2,44.6,87,29.94,10.0,North,-9999.0,-,N/A,,Overcast,0,2012-10-09 19:50:00
11:01 AM,48.0,45.0,89,30.22,10.0,North,-9999.0,-,N/A,,Overcast,0,2012-10-09 20:01:00
11:46 AM,48.2,46.4,93,29.92,9.0,North,-9999.0,-,N/A,,Overcast,0,2012-10-09 20:46:00
12:01 PM,48.0,46.0,93,30.20,9.0,North,-9999.0,-,N/A,,Overcast,0,2012-10-09 21:01:00
12:34 PM,48.2,46.4,93,29.91,9.0,North,-9999.0,-,N/A,,Overcast,0,2012-10-09 21:34:00
1:01 PM,48.9,46.0,90,30.19,9.0,North,-9999.0,-,N/A,,Overcast,0,2012-10-09 22:01:00
1:37 PM,48.2,46.4,93,29.90,10.0,North,-9999.0,-,N/A,,Overcast,0,2012-10-09 22:37:00
2:01 PM,48.9,46.0,90,30.17,10.0,North,-9999.0,-,N/A,,Overcast,0,2012-10-09 23:01:00
3:01 PM,48.9,46.0,90,30.17,10.0,North,-9999.0,-,N/A,,Overcast,0,2012-10-10 00:01:00
4:01 PM,48.0,45.0,89,30.16,10.0,North,-9999.0,-,N/A,,Overcast,0,2012-10-10 01:01:00
5:01 PM,48.0,45.0,89,30.14,10.0,North,-9999.0,-,N/A,,Overcast,0,2012-10-10 02:01:00
6:01 PM,48.9,45.0,86,30.12,10.0,North,-9999.0,-,N/A,,Overcast,0,2012-10-10 03:01:00
6:19 PM,48.2,44.6,87,29.84,10.0,North,-9999.0,-,N/A,,Unknown,0,2012-10-10 03:19:00
6:51 PM,48.2,46.4,93,29.83,10.0,North,-9999.0,-,N/A,,Overcast,0,2012-10-10 03:51:00
7:01 PM,48.9,45.0,86,30.11,10.0,North,-9999.0,-,N/A,,Overcast,0,2012-10-10 04:01:00
7:10 PM,48.2,44.6,87,29.82,10.0,North,-9999.0,-,N/A,,Overcast,0,2012-10-10 04:10:00
8:01 PM,48.9,46.0,90,30.09,10.0,North,-9999.0,-,0.00,Rain,Light Rain,0,2012-10-10 05:01:00
9:01 PM,48.9,46.0,90,30.09,7.0,North,-9999.0,-,0.00,,Overcast,0,2012-10-10 06:01:00
10:01 PM,48.9,46.0,90,30.08,7.0,North,-9999.0,-,0.00,Rain,Light Rain,0,2012-10-10 07:01:00
11:01 PM,48.9,46.0,90,30.08,10.0,North,-9999.0,-,0.00,Rain,Light Rain,0,2012-10-10 08:01:00